Tracking 30995 objects as of 5-Jul-2025
HD Live streaming from Space Station
objects crossing your sky now

STARLINK-31480

Track STARLINK-31480 now!
10-day predictions
STARLINK-31480 is classified as:


NORAD ID: 59306
Int'l Code: 2024-056L
Perigee: 489.3 km
Apogee: 491.1 km
Inclination: 43.0 °
Period: 94.3 minutes
Semi major axis: 6861 km
RCS: Unknown
Launch date: March 24, 2024
Source: United States (US)
Launch site: AIR FORCE EASTERN TEST RANGE (AFETR)
Your satellite tracking list
Your tracking list is empty




NASA's NSSDC Master Catalog

Two Line Element Set (TLE):
1 59306U 24056L   25186.05722916  .00000572  00000-0  30325-4 0  9995
2 59306  43.0011 189.0723 0001277 276.7237  83.3469 15.27574700 73286
Source of the keplerian elements: AFSPC